Temp_Advection
nan nan nan nan nan nan nan nan nan nan nan nan nan nan nan nan nan nan nan nan nan nan nan nan nan nan nan nan nan nan nan nan nan nan nan nan nan nan nan nan nan nan
nan -1 -1 -1 -1 -0 -1 -1 -0 -0 -0 -0 -0 -0 -0 -0 -0 -0 -0 -0 -1 -1 -0 0 0 1 0 -0 -0 -0 -0 -0 -0 0 0 -0 0 0 0 0 0 nan
nan -1 -1 -1 -1 -1 -1 -1 -1 -0 -0 -0 -1 -1 -0 -0 -0 -0 -0 -0 -0 -0 -0 -0 0 0 0 0 -0 -0 -0 -0 -0 -0 -0 -0 0 0 -0 0 0 nan
nan -2 -1 -1 -1 -1 -1 -1 -1 -1 -1 -0 -0 -0 -0 -0 -0 -0 -0 -0 -0 -0 -0 0 0 0 0 0 -0 -0 -0 -0 -0 -0 -0 -0 -0 -0 -0 0 -0 nan
nan -3 -3 -2 -1 -1 -1 -1 -1 -1 -1 -0 -0 -0 -0 0 -0 -0 -0 -0 -0 -0 -0 0 0 0 0 0 -0 -1 -1 -0 -0 -0 -0 -1 -0 -0 0 0 -0 nan
nan -2 -3 -3 -2 -1 -1 -1 -1 -1 -0 -1 -0 -0 -0 -0 0 0 -0 -0 -0 -0 -0 -0 -0 0 0 0 0 -0 -0 -1 -1 -0 -1 -1 -0 -0 0 0 -0 nan
nan -1 -2 -3 -2 -1 -1 -1 -1 -1 -1 -1 -0 -0 -0 -0 -0 -0 -0 -0 -0 -0 -0 -0 -0 -0 0 0 0 1 0 -0 -1 -1 -1 -1 -0 0 0 0 -0 nan
nan -2 -2 -3 -2 -1 -1 -1 -1 -1 -1 -1 -0 -0 -0 -0 -0 -0 -0 -0 0 0 -0 -0 -1 -0 -0 0 0 0 1 1 -0 -1 -1 -0 0 0 0 0 0 nan
nan -2 -2 -2 -2 -1 -1 -1 -1 -1 -1 -1 -1 -0 -0 -0 -0 -0 0 -0 -0 0 0 -0 -0 -1 -0 -0 0 0 1 1 1 0 -0 -0 -0 -0 -0 0 0 nan
nan -2 -2 -2 -2 -2 -1 -1 -1 -1 -1 -1 -1 -1 -1 -0 -0 -0 -0 -0 -0 0 0 0 -0 -0 -0 -0 -0 0 0 1 1 1 0 -0 -1 -1 -1 -1 -0 nan
nan -2 -2 -2 -2 -2 -2 -1 -1 -1 -1 -1 -1 -1 -1 -1 -0 -0 -0 -0 -0 -0 0 1 0 -0 0 -0 -0 -0 0 1 1 1 1 -0 -0 -0 -1 -1 -1 nan
nan -1 -1 -2 -2 -2 -2 -2 -1 -1 -1 -1 -1 -1 -1 -1 -0 -0 -0 -0 -1 -1 -0 1 1 0 0 0 -0 -1 -0 0 1 1 0 -0 0 0 -0 -0 -0 nan
nan -1 -1 -2 -2 -2 -2 -2 -2 -1 -1 -1 -1 -1 -1 -1 -0 -1 -1 -1 -1 -1 -0 0 0 0 0 0 0 -0 -0 -0 -0 0 0 0 0 1 1 0 -0 nan
nan -1 -2 -2 -2 -1 -1 -2 -2 -2 -1 -1 -1 -1 -1 -0 -0 -1 -1 -1 -1 -1 -0 -0 0 0 0 0 1 1 0 -1 -1 -0 -0 0 1 1 1 0 -0 nan
nan -2 -2 -2 -2 -2 -1 -1 -1 -1 -1 -1 -1 -1 -1 -1 -1 -1 -1 -2 -1 -1 -0 -0 -0 0 0 1 1 0 -0 -0 -0 -0 -0 0 0 1 1 1 1 nan
nan -2 -2 -1 -1 -1 -1 -1 -1 -1 -1 -1 -1 -1 -1 -2 -1 -1 -1 -2 -2 -1 -0 -0 -0 0 1 1 1 -0 -0 -0 -0 -0 0 0 0 0 1 1 1 nan
nan -2 -2 -1 -1 -1 -2 -2 -1 -1 -2 -2 -2 -1 -1 -1 -1 -1 -1 -1 -2 -1 -0 -0 -0 0 1 0 -0 0 0 -0 -0 -0 0 1 0 0 0 1 1 nan
nan -1 -1 -1 -1 -1 -2 -2 -2 -1 -2 -2 -2 -2 -1 -1 -1 -1 -1 -1 -1 -1 -0 -0 -0 0 0 -0 -0 -0 -0 0 -0 -0 0 0 0 0 0 0 0 nan
nan -2 -2 -2 -2 -2 -2 -2 -1 -2 -2 -2 -2 -1 -1 -1 -1 -1 -1 -1 -1 -0 -0 -0 0 0 0 -0 -0 -0 -0 0 0 0 0 0 0 0 0 0 0 nan
nan -2 -2 -2 -2 -2 -1 -1 -1 -1 -2 -2 -1 -1 -1 -1 -1 -0 -1 -0 -0 -0 0 0 0 0 -0 -0 -0 -0 0 0 0 -0 0 0 0 0 0 -0 -0 nan
nan -1 -2 -2 -2 -2 -1 -1 -0 -1 -1 -1 -1 -1 -1 -1 -1 -0 -0 -0 -0 -0 -0 -0 -0 0 0 0 0 0 0 0 -0 0 0 0 0 -0 -0 -0 -0 nan
nan -1 -1 -1 -2 -2 -1 -0 0 0 -0 -0 -0 -0 -0 -0 -1 -1 -0 -0 -0 -0 -0 -1 -0 0 0 0 0 0 0 0 0 0 -0 -0 -0 -0 -0 -0 0 nan
nan -1 -1 -1 -2 -1 -1 -1 0 0 0 0 -0 -0 -0 -0 -0 -0 -0 -0 -0 -0 -0 -0 -1 -0 0 0 -0 -0 0 0 0 -0 -0 -0 -0 -0 0 0 0 nan
nan -1 -1 -1 -1 -1 -1 -0 0 0 0 0 0 -0 -1 -0 0 -0 -0 -0 -0 -0 -0 -0 -0 -0 0 0 -0 -0 0 0 -0 -0 0 0 -0 0 0 -0 -1 nan
nan -0 -1 -1 -1 -0 -0 -0 -0 0 1 0 0 0 -0 -0 -0 0 -0 -0 -0 -0 0 0 -0 -0 0 -0 -0 -0 0 0 0 0 0 -0 -0 0 0 -0 -0 nan
nan nan nan nan nan nan nan nan nan nan nan nan nan nan nan nan nan nan nan nan nan nan nan nan nan nan nan nan nan nan nan nan nan nan nan nan nan nan nan nan nan nan
Wind_Speed
36 37 39 38 36 35 34 35 34 34 34 34 33 32 31 32 31 30 30 30 29 28 26 26 27 29 31 31 30 30 31 32 31 30 31 33 35 37 38 38 39 39
36 36 38 39 37 36 35 36 36 35 34 32 31 31 30 30 30 29 29 30 30 29 27 26 27 27 29 30 31 31 31 31 32 31 31 33 33 35 36 36 36 38
39 37 38 39 39 38 37 37 37 35 32 30 28 30 30 30 30 29 28 29 29 29 27 27 28 28 28 28 29 30 31 31 32 32 32 33 33 34 35 35 35 35
43 42 41 39 39 40 39 39 37 33 31 30 28 29 31 31 29 29 28 28 28 27 27 28 28 28 28 28 28 29 29 30 31 32 32 32 32 33 33 33 33 34
42 42 42 40 39 39 39 39 37 33 30 30 29 28 30 30 29 30 30 31 30 28 27 27 28 28 28 29 30 29 29 29 30 31 32 32 31 32 32 33 33 32
39 39 40 39 39 39 38 37 35 33 31 32 32 29 28 28 28 28 29 31 32 32 30 27 27 27 28 28 29 29 29 28 29 29 31 32 33 32 32 32 33 32
40 41 39 38 38 38 37 36 35 35 34 33 31 29 28 28 27 25 25 27 28 31 32 29 27 27 28 28 28 28 28 27 26 27 29 31 32 32 32 32 32 32
43 43 36 35 36 35 35 36 36 36 33 30 27 26 27 26 24 23 24 25 25 27 30 31 30 28 28 28 29 29 29 28 26 25 26 29 30 31 32 32 32 32
44 40 33 32 32 32 34 34 32 31 28 26 24 24 25 24 22 23 24 23 24 25 27 29 31 29 27 28 29 30 30 29 28 26 25 27 29 31 32 32 32 33
42 36 33 32 30 30 31 31 30 30 28 26 25 25 25 25 24 26 26 26 26 26 26 27 29 29 29 27 27 28 29 29 30 29 27 27 29 31 31 31 32 33
38 34 33 32 30 30 29 28 28 28 28 27 26 26 26 26 26 27 28 29 30 29 28 28 28 29 30 30 28 27 28 29 30 29 28 27 27 28 29 30 31 32
36 32 32 31 30 29 28 27 27 26 26 26 26 27 28 29 30 31 32 34 35 33 29 27 27 28 28 30 30 30 29 29 30 29 28 28 27 26 26 27 29 31
32 30 31 32 31 29 29 28 27 26 26 27 27 28 29 30 32 34 34 34 36 35 30 26 27 28 28 29 30 30 31 32 31 29 28 28 29 28 27 26 26 28
29 30 32 33 32 30 30 29 27 26 25 26 26 27 28 30 31 32 32 33 35 34 30 27 27 28 29 30 30 31 31 32 32 31 30 30 30 30 30 29 27 26
34 33 34 33 31 30 30 30 28 27 27 26 25 26 28 29 28 29 29 31 33 32 30 29 28 28 29 30 31 31 30 29 28 29 30 31 32 32 32 31 30 28
36 34 33 31 29 29 29 28 28 28 28 28 27 28 29 28 26 25 27 29 31 30 29 29 28 29 29 28 29 29 28 28 27 28 29 30 32 33 34 34 33 31
33 31 29 28 28 28 28 27 28 29 30 30 30 30 29 26 23 23 24 26 27 28 27 27 28 28 28 27 26 26 26 28 29 30 30 31 32 32 33 34 33 30
31 28 27 27 28 28 29 29 30 31 31 30 29 27 25 22 20 21 23 24 25 26 27 27 27 27 27 25 24 25 25 27 29 30 30 31 32 32 32 32 31 30
29 28 29 29 29 29 31 32 31 31 31 30 26 23 20 18 18 19 21 21 22 23 24 25 25 25 25 25 24 24 24 25 27 29 30 31 32 32 33 32 31 31
30 31 31 31 31 32 33 33 31 30 30 28 24 19 16 15 16 18 19 19 19 19 21 23 24 24 25 25 25 25 25 25 27 29 31 32 33 32 32 31 31 31
31 32 32 32 33 35 35 32 29 29 29 25 22 18 15 16 18 17 16 15 16 18 20 21 20 19 20 21 21 21 22 23 24 26 29 31 32 32 31 31 31 31
32 33 33 34 37 37 33 29 28 28 26 23 21 17 14 16 18 17 14 16 18 19 20 20 18 17 18 19 19 20 20 21 23 25 28 30 31 32 31 31 31 30
33 33 35 37 38 36 31 29 28 25 22 20 19 16 13 13 15 15 15 17 19 20 21 22 21 20 20 22 22 22 22 23 24 26 28 31 32 31 31 31 30 30
34 34 37 39 37 33 30 28 25 22 19 17 17 17 16 13 14 17 18 17 19 20 21 22 23 23 22 23 24 23 22 24 26 28 30 31 31 31 31 31 31 31
35 36 38 38 35 31 29 25 23 21 18 16 16 17 17 15 16 19 20 19 19 19 19 21 23 23 23 24 25 24 25 25 26 28 30 31 31 31 31 32 32 32
37 37 37 34 31 29 26 22 22 20 17 15 16 16 17 17 17 18 19 19 18 18 18 20 22 24 25 26 27 27 27 27 27 27 28 29 30 30 30 31 31 30
Wind_Direction
305 302 299 296 294 293 291 289 286 281 279 279 279 278 277 277 276 276 275 274 272 268 264 263 263 260 256 251 249 244 238 234 233 235 236 234 233 232 232 229 226 227
306 303 300 298 296 293 290 287 285 282 279 278 279 280 280 278 275 275 275 273 272 270 268 265 264 264 261 256 252 251 246 240 235 233 232 233 234 234 234 234 232 228
307 304 301 298 294 291 288 285 284 282 280 277 277 280 280 278 274 270 269 269 270 269 269 269 267 266 265 261 256 253 251 249 245 241 237 235 233 233 234 235 234 232
307 304 300 297 293 291 290 289 286 280 278 277 275 276 278 277 276 274 272 271 271 267 264 265 267 269 268 266 261 254 251 251 251 249 245 243 240 238 237 236 236 235
308 305 300 296 292 291 290 291 289 283 279 278 274 272 274 275 275 275 272 272 274 272 266 261 262 266 267 267 265 260 253 250 250 250 247 247 246 245 245 242 241 240
313 310 305 297 292 291 290 290 289 285 278 276 272 267 270 274 275 275 273 270 269 269 269 266 262 263 264 264 264 262 260 254 250 250 249 248 247 247 246 244 243 244
312 310 307 300 295 294 294 291 290 287 279 276 275 267 263 267 268 271 275 273 268 265 265 265 264 262 262 263 263 263 264 262 255 253 252 250 249 247 246 245 244 244
310 310 307 304 298 294 296 295 294 292 282 276 281 277 269 268 267 267 269 271 272 268 263 261 262 260 257 258 260 261 263 264 259 254 253 252 251 248 247 245 244 244
314 314 311 309 303 295 296 298 298 297 287 277 283 287 283 283 281 278 277 275 274 276 271 262 260 261 258 254 254 255 258 262 262 258 256 254 252 251 248 245 242 241
316 315 314 315 311 304 302 301 300 299 295 287 286 287 287 289 287 284 285 284 280 279 278 269 260 258 258 256 254 254 254 256 259 261 261 258 254 251 250 248 244 241
315 312 313 314 312 309 304 301 299 296 294 290 285 283 281 281 282 280 281 283 282 279 277 273 264 256 255 256 256 256 254 254 255 258 261 262 259 253 248 246 245 244
313 309 311 312 312 311 306 303 300 295 292 289 284 281 277 272 272 273 274 277 277 275 272 272 267 259 257 256 255 255 254 253 254 255 256 257 259 258 252 246 243 243
309 308 310 310 309 311 310 307 302 297 293 289 284 281 278 274 272 271 271 271 270 268 265 267 266 261 260 260 258 255 252 250 252 253 253 252 254 256 256 252 245 242
310 311 312 309 307 309 311 309 305 301 297 291 286 280 276 275 274 272 271 270 266 261 258 259 261 259 260 261 259 258 255 252 250 249 249 250 251 253 256 257 254 248
310 309 311 312 310 309 309 308 307 306 304 301 295 287 282 281 276 269 269 270 265 258 253 253 255 258 261 260 258 259 260 258 253 249 247 247 250 253 256 258 257 255
307 305 308 311 311 310 309 308 307 305 303 300 295 290 288 288 280 270 270 272 264 256 253 252 253 257 259 259 258 256 257 257 255 252 250 248 249 251 253 255 256 259
315 314 312 309 309 311 311 309 307 302 297 293 290 287 286 288 283 273 273 272 264 259 258 255 253 257 260 261 262 258 255 255 253 251 252 253 252 251 252 254 257 260
321 320 315 311 312 314 312 309 305 300 300 300 296 288 286 287 281 271 268 267 264 263 263 260 258 261 263 265 265 262 260 256 252 251 252 253 254 254 254 255 257 258
321 319 317 315 315 313 311 310 307 304 307 310 305 295 291 290 281 271 267 267 266 266 265 264 264 264 266 268 268 266 263 257 252 251 252 253 254 254 254 253 254 256
320 319 317 315 314 314 314 313 313 314 315 314 309 304 302 299 289 279 274 273 273 272 269 269 269 267 268 269 269 265 261 258 254 252 252 252 253 253 254 254 254 255
318 317 316 314 315 318 319 319 321 321 320 320 317 310 309 311 306 297 288 283 281 281 279 279 278 276 274 272 269 265 260 258 257 253 250 249 250 252 254 255 256 257
318 318 317 316 320 323 324 325 327 326 326 328 324 315 313 313 310 305 298 289 285 284 283 283 283 283 282 281 278 273 267 262 258 254 252 252 253 254 254 256 258 259
321 321 319 321 324 327 328 330 331 331 332 334 327 318 314 310 304 301 294 286 282 279 278 279 282 283 283 282 280 275 270 265 260 257 256 257 258 257 256 258 261 262
323 321 322 326 329 330 332 334 336 336 337 337 327 317 313 311 309 307 300 289 283 280 280 281 281 281 280 280 281 277 272 268 264 261 261 261 261 260 260 261 263 264
324 325 329 331 332 334 336 338 340 342 344 340 329 320 317 315 312 307 300 295 293 291 289 289 288 288 288 286 284 280 275 272 269 267 266 264 262 262 261 261 262 263
329 332 335 336 336 337 340 343 346 350 352 346 337 330 322 315 310 305 301 303 305 302 298 298 297 296 294 289 283 279 275 273 269 266 264 262 261 261 260 260 261 261
Height
1408 1406 1403 1400 1398 1396 1394 1393 1391 1390 1388 1387 1386 1385 1384 1383 1383 1383 1382 1381 1380 1380 1380 1381 1381 1381 1382 1382 1383 1383 1383 1383 1383 1384 1384 1386 1387 1388 1389 1390 1392 1394
1404 1402 1399 1396 1394 1392 1390 1388 1387 1385 1383 1382 1381 1380 1380 1380 1379 1379 1378 1378 1377 1376 1376 1377 1377 1378 1378 1378 1379 1379 1379 1380 1379 1380 1380 1381 1383 1384 1385 1386 1387 1389
1400 1398 1395 1392 1390 1388 1386 1384 1382 1380 1379 1378 1377 1377 1376 1376 1375 1375 1375 1374 1374 1373 1373 1373 1373 1374 1374 1374 1375 1375 1376 1376 1376 1377 1377 1377 1379 1380 1381 1383 1384 1385
1395 1392 1390 1388 1385 1383 1381 1379 1377 1376 1375 1374 1373 1373 1373 1372 1372 1371 1371 1371 1370 1370 1370 1370 1370 1370 1371 1371 1371 1371 1371 1372 1373 1374 1374 1374 1375 1376 1377 1378 1379 1380
1389 1387 1384 1383 1380 1378 1376 1374 1373 1371 1370 1370 1369 1369 1369 1368 1368 1368 1368 1367 1367 1367 1367 1367 1367 1367 1367 1367 1367 1367 1367 1368 1369 1370 1370 1370 1371 1372 1373 1375 1375 1376
1384 1382 1379 1377 1375 1374 1372 1370 1368 1367 1366 1365 1365 1365 1365 1364 1364 1364 1364 1364 1364 1364 1363 1363 1363 1364 1364 1364 1364 1363 1363 1364 1365 1366 1366 1367 1368 1369 1370 1371 1372 1372
1380 1377 1375 1373 1370 1369 1367 1366 1364 1363 1362 1361 1360 1360 1360 1360 1360 1360 1360 1360 1360 1360 1360 1360 1360 1360 1360 1360 1360 1360 1360 1361 1361 1362 1363 1363 1364 1365 1366 1368 1368 1369
1376 1372 1369 1368 1366 1364 1363 1361 1360 1358 1357 1357 1356 1356 1355 1355 1355 1355 1355 1356 1356 1356 1356 1357 1356 1356 1357 1357 1357 1357 1357 1357 1358 1359 1359 1360 1361 1362 1363 1364 1364 1365
1372 1368 1365 1363 1362 1360 1359 1357 1356 1354 1353 1353 1352 1352 1352 1351 1351 1351 1351 1351 1352 1352 1352 1353 1353 1353 1353 1353 1353 1353 1353 1354 1354 1355 1356 1357 1357 1358 1359 1360 1361 1361
1369 1365 1362 1360 1358 1356 1355 1353 1352 1351 1350 1349 1349 1348 1348 1348 1348 1348 1348 1348 1348 1348 1348 1349 1349 1349 1349 1349 1349 1350 1350 1351 1351 1351 1352 1353 1353 1354 1355 1357 1358 1358
1365 1362 1360 1357 1355 1353 1351 1350 1349 1348 1347 1346 1345 1345 1345 1345 1344 1344 1344 1344 1344 1344 1344 1344 1345 1345 1345 1346 1346 1346 1347 1347 1348 1349 1349 1349 1349 1350 1351 1353 1354 1355
1362 1360 1357 1355 1352 1350 1348 1347 1345 1344 1343 1342 1341 1341 1340 1340 1340 1340 1340 1340 1339 1340 1340 1340 1340 1341 1341 1342 1342 1343 1343 1344 1345 1346 1346 1346 1346 1347 1348 1349 1350 1351
1359 1357 1354 1351 1349 1347 1345 1343 1342 1340 1339 1338 1337 1336 1336 1336 1336 1335 1336 1335 1335 1335 1335 1336 1336 1337 1337 1338 1338 1339 1340 1340 1341 1342 1342 1343 1343 1344 1344 1345 1346 1347
1356 1353 1351 1348 1346 1344 1342 1340 1338 1337 1336 1334 1334 1333 1332 1331 1331 1330 1330 1330 1330 1331 1331 1332 1332 1332 1333 1333 1334 1335 1335 1336 1337 1337 1338 1339 1340 1340 1341 1341 1342 1343
1352 1349 1347 1345 1343 1341 1339 1337 1335 1333 1332 1330 1329 1328 1327 1327 1326 1325 1325 1325 1326 1326 1327 1327 1328 1328 1329 1329 1330 1330 1331 1332 1332 1333 1334 1335 1336 1336 1337 1337 1338 1339
1348 1345 1343 1342 1340 1338 1336 1333 1331 1329 1327 1326 1325 1323 1322 1322 1321 1320 1320 1320 1321 1321 1322 1323 1324 1324 1325 1325 1326 1326 1327 1328 1328 1329 1330 1331 1332 1332 1333 1333 1334 1334
1344 1342 1341 1339 1337 1335 1332 1330 1328 1326 1323 1321 1320 1319 1318 1317 1316 1316 1316 1316 1317 1317 1318 1319 1319 1320 1321 1321 1322 1323 1323 1324 1324 1325 1326 1326 1327 1327 1328 1329 1329 1330
1342 1340 1338 1337 1334 1332 1329 1327 1324 1322 1319 1317 1315 1314 1313 1312 1312 1312 1312 1312 1313 1314 1314 1315 1316 1316 1317 1318 1318 1319 1320 1320 1320 1321 1321 1322 1322 1322 1323 1324 1325 1326
1340 1338 1335 1333 1331 1329 1326 1323 1320 1317 1315 1313 1311 1310 1309 1308 1309 1309 1309 1309 1309 1310 1310 1311 1312 1312 1313 1314 1314 1315 1315 1316 1316 1316 1317 1317 1317 1318 1318 1320 1321 1322
1339 1335 1332 1330 1328 1326 1322 1319 1316 1314 1311 1310 1308 1306 1306 1305 1306 1306 1306 1306 1306 1306 1307 1307 1308 1309 1309 1310 1310 1311 1311 1312 1312 1312 1312 1312 1312 1313 1314 1315 1316 1318
1336 1333 1330 1327 1324 1321 1318 1315 1313 1310 1308 1306 1305 1303 1303 1302 1303 1303 1303 1303 1303 1303 1303 1303 1304 1305 1305 1305 1306 1306 1307 1308 1308 1307 1307 1307 1307 1308 1310 1311 1312 1313
1333 1330 1327 1324 1321 1317 1314 1311 1309 1306 1305 1303 1302 1301 1300 1300 1300 1301 1301 1301 1301 1301 1300 1300 1300 1301 1301 1301 1302 1302 1303 1303 1303 1303 1302 1302 1303 1304 1305 1306 1307 1308
1330 1327 1324 1321 1318 1314 1310 1308 1305 1303 1302 1301 1300 1299 1298 1298 1298 1299 1299 1299 1298 1298 1298 1297 1297 1298 1298 1298 1298 1298 1299 1299 1299 1298 1298 1297 1298 1299 1300 1301 1301 1303
1328 1325 1322 1318 1314 1311 1308 1305 1303 1301 1300 1300 1299 1298 1297 1296 1296 1296 1296 1296 1295 1295 1295 1294 1294 1294 1295 1294 1294 1294 1294 1294 1294 1293 1293 1292 1293 1294 1295 1296 1296 1297
1325 1322 1319 1315 1311 1308 1305 1303 1301 1300 1298 1298 1297 1296 1295 1294 1294 1294 1293 1292 1292 1292 1291 1291 1290 1290 1290 1290 1289 1289 1289 1289 1289 1288 1287 1287 1288 1289 1290 1291 1291 1292
1323 1320 1316 1313 1309 1306 1303 1302 1300 1298 1297 1296 1295 1294 1293 1292 1291 1291 1290 1289 1289 1289 1288 1287 1286 1286 1286 1285 1284 1284 1284 1283 1283 1283 1282 1283 1283 1284 1285 1285 1286 1287